This is the latest recevied weather packets stored in our database for station/object VK5KX. If no packets are shown the sender has not sent any weather packets the latest 10 day(s).
| Time | Temp. | Humidity | Pressure | Rain* | Wind** | Luminosity | Snow |
|---|---|---|---|---|---|---|---|
| 1777382127 | 19.44° C | 59% | 1023.8 hPa | 0 mm | - | - | - |
| 1777381220 | 20° C | 58% | 1023.9 hPa | 0 mm | - | - | - |
| 1777380320 | 20° C | 56% | 1023.9 hPa | 0 mm | - | - | - |
| 1777379422 | 20° C | 54% | 1023.8 hPa | 0 mm | - | - | - |
| 1777378519 | 20.56° C | 52% | 1023.9 hPa | 0 mm | - | - | - |
| 1777377619 | 21.11° C | 51% | 1023.7 hPa | 0 mm | - | - | - |
| 1777376718 | 21.11° C | 50% | 1023.6 hPa | 0 mm | - | - | - |
| 1777375821 | 21.11° C | 50% | 1023.4 hPa | 0 mm | - | - | - |
| 1777374916 | 21.11° C | 50% | 1023.4 hPa | 0 mm | - | - | - |
| 1777374020 | 21.11° C | 50% | 1023.4 hPa | 0 mm | - | - | - |
| 1777373115 | 21.11° C | 51% | 1023.4 hPa | 0 mm | - | - | - |
| 1777372222 | 21.11° C | 52% | 1023.4 hPa | 0 mm | - | - | - |
| 1777371315 | 20.56° C | 53% | 1023.4 hPa | 0 mm | - | - | - |
| 1777370431 | 20.56° C | 54% | 1023.3 hPa | 0 mm | - | - | - |
| 1777369514 | 20.56° C | 55% | 1023.2 hPa | 0 mm | - | - | - |
| 1777368613 | 20.56° C | 54% | 1023.1 hPa | 0 mm | - | - | - |
| 1777367713 | 21.11° C | 53% | 1022.9 hPa | 0 mm | - | - | - |
| 1777366813 | 21.67° C | 53% | 1022.8 hPa | 0 mm | - | - | - |
| 1777365912 | 22.22° C | 52% | 1022.7 hPa | 0 mm | - | - | - |
| 1777365012 | 22.78° C | 49% | 1022.6 hPa | 0 mm | - | - | - |
| 1777364111 | 23.33° C | 46% | 1022.6 hPa | 0 mm | - | - | - |
| 1777363212 | 23.89° C | 45% | 1022.4 hPa | 0 mm | - | - | - |
| 1777362312 | 24.44° C | 43% | 1022.2 hPa | 0 mm | - | - | - |
| 1777361410 | 25° C | 41% | 1022.1 hPa | 0 mm | - | - | - |
| 1777360510 | 25.56° C | 40% | 1022.1 hPa | 0 mm | - | - | - |
* Rain latest hour (hover to see other rain measurements)
** Current wind speed in m/s (hover to see current wind gust speed)